Voltar ao catálogo

SL-16 DEB

AtivoLEO
NORAD 22610·DEBRIS·🇷🇺 Russia

Lançado Mar 26, 1993 de Baikonur Cosmodrome

Loading…

Próximas Passagens (próximas 24 horas)

TLE

AtualizadoSource: Space-Track

Época: Sep 14, 2026, 12:09 UTC

1 22610U 93016U   26257.50657295 -.00000009  00000-0  33136-4 0  9991
2 22610  70.9993 295.7367 0213547 185.0471 174.8477 13.67907234670820

Acompanhe SL-16 DEB em tempo real com AllMySat

Download on the App Store